WetterOnline ( https://www.wetteronline.de )

Wetter aktuell Monschau

Aktuelles Wetter: Elsenborn (570m)

6-stündlich | Neueste Meldungen
Ortszeit Temperatur Wetter
So, 25.09. 2:00 9.3° C Nebel
Sa, 24.09. 20:00 9.8° C bedeckt
Sa, 24.09. 14:00 11.0° C Sprühregen
Sa, 24.09. 8:00 6.6° C bedeckt
Sa, 24.09. 2:00 6.3° C bewölkt
Fr, 23.09. 20:00 9.7° C bedeckt
Fr, 23.09. 14:00 14.3° C leicht bewölkt
Fr, 23.09. 8:00 0.9° C -
Ortszeit Temperatur Wetter
So, 25.09. 7:00 8.8° C Sprühregen
So, 25.09. 6:00 9.1° C Sprühregen
So, 25.09. 5:00 9.3° C leichter Regen
So, 25.09. 4:00 9.3° C Dunst
So, 25.09. 3:00 9.3° C bedeckt
So, 25.09. 2:00 9.3° C Nebel
Ortszeit Relative Feuchte Sichtweite
So, 25.09. 2:00 100% 100 m
Sa, 24.09. 20:00 96% 4.6 km
Sa, 24.09. 14:00 92% 16 km
Sa, 24.09. 8:00 98% 16 km
Sa, 24.09. 2:00 96% 19 km
Fr, 23.09. 20:00 84% 20 km
Fr, 23.09. 14:00 53% 20 km
Fr, 23.09. 8:00 99% 16 km
Ortszeit Relative Feuchte Sichtweite
So, 25.09. 7:00 100% 2.9 km
So, 25.09. 6:00 100% 2.0 km
So, 25.09. 5:00 100% 3.1 km
So, 25.09. 4:00 100% 1.0 km
So, 25.09. 3:00 100% 2.0 km
So, 25.09. 2:00 100% 100 m
Ortszeit Niederschlagsmenge Niederschlagsart
So, 25.09. 2:00 3 l/m2 in 6 Std. Regen
Sa, 24.09. 20:00 1 l/m2 in 12 Std. Regen
Sa, 24.09. 14:00 0.5 l/m2 in 6 Std. Regen
Sa, 24.09. 8:00 0.0 l/m2 in 12 Std. -
Sa, 24.09. 2:00 0.0 l/m2 in 6 Std. -
Fr, 23.09. 20:00 0.0 l/m2 in 12 Std. -
Fr, 23.09. 14:00 0.0 l/m2 in 6 Std. -
Fr, 23.09. 8:00 0.0 l/m2 in 12 Std. -
Ortszeit Niederschlagsmenge Niederschlagsart
So, 25.09. 7:00 keine Meldung -
So, 25.09. 6:00 keine Meldung -
So, 25.09. 5:00 keine Meldung -
So, 25.09. 4:00 keine Meldung -
So, 25.09. 3:00 keine Meldung -
So, 25.09. 2:00 keine Meldung -
Ortszeit Stärke Spitze Richtung
km/h Bft. km/h Grad Sektor
So, 25.09. 2:00 7 2 18 360° N
Sa, 24.09. 20:00 4 1 11 uml. uml.
Sa, 24.09. 14:00 4 1 11 uml. uml.
Sa, 24.09. 8:00 4 1 7 uml. uml.
Sa, 24.09. 2:00 4 1 7 uml. uml.
Fr, 23.09. 20:00 4 1 14 uml. uml.
Fr, 23.09. 14:00 11 2 25 250° W
Fr, 23.09. 8:00 0 0 7 - -
Ortszeit Stärke Spitze Richtung
km/h Bft. km/h Grad Sektor
So, 25.09. 7:00 11 2 29 20° N
So, 25.09. 6:00 11 2 22 360° N
So, 25.09. 5:00 7 2 18 360° N
So, 25.09. 4:00 7 2 14 360° N
So, 25.09. 3:00 11 2 18 10° N
So, 25.09. 2:00 7 2 18 360° N
Ortszeit Untergrenze Bedeckung Gattung
total tief tief mittel hoch
So, 25.09. 2:00 60 m - 8/8 - - -
Sa, 24.09. 20:00 1110 m - 8/8 - - -
Sa, 24.09. 14:00 1020 m - 8/8 - - -
Sa, 24.09. 8:00 1500 m - 8/8 - - -
Sa, 24.09. 2:00 1500 m - 7/8 - - -
Fr, 23.09. 20:00 4800 m - 8/8 - - -
Fr, 23.09. 14:00 4500 m - 4/8 - - -
Fr, 23.09. 8:00 - - - - - -
Ortszeit Bedeckungsgrad in Achtel und Wolkenuntergrenze
So, 25.09. 7:00 8(60m)
So, 25.09. 6:00 8(60m)
So, 25.09. 5:00 8(120m)
So, 25.09. 4:00 8(60m)
So, 25.09. 3:00 8(60m)
So, 25.09. 2:00 8(60m)
Ortszeit Luftdruck NN (hPa) Tendenz (hPa in 3 Std.)
So, 25.09. 2:00 1014 0,0
Sa, 24.09. 20:00 1013 + 0,4
Sa, 24.09. 14:00 1013 - 0,2
Sa, 24.09. 8:00 1014 - 0,5
Sa, 24.09. 2:00 1016 - 0,6
Fr, 23.09. 20:00 1016 - 0,4
Fr, 23.09. 14:00 1016 - 0,6
Fr, 23.09. 8:00 1020 - 0,5
Ortszeit Luftdruck NN (hPa) Tendenz (hPa in 3 Std.)
So, 25.09. 7:00 1014 + 0,1
So, 25.09. 6:00 1014 0,0
So, 25.09. 5:00 1014 0,0
So, 25.09. 4:00 1014 0,0
So, 25.09. 3:00 1014 - 0,1
So, 25.09. 2:00 1014 0,0
Ortszeit Schneehöhe (cm)
So, 25.09. 2:00 -
Sa, 24.09. 20:00 -
Sa, 24.09. 14:00 -
Sa, 24.09. 8:00 -
Sa, 24.09. 2:00 -
Fr, 23.09. 20:00 -
Fr, 23.09. 14:00 -
Fr, 23.09. 8:00 -
Ortszeit Schneehöhe (cm)
So, 25.09. 7:00 -
So, 25.09. 6:00 -
So, 25.09. 5:00 -
So, 25.09. 4:00 -
So, 25.09. 3:00 -
So, 25.09. 2:00 -
Link zu dieser Seite / Seite empfehlen

Das Wetter in ...